• Join FlightAware (Why Join?)
  • Login
  • US Flag 
12:53AM EDT


 

Airport Tracker/Info


-or-


 

Live Flight TrackerFlight Track Log ✈ ASQ4633 ✈ 28-Apr-2013 ✈ KBTV - KEWR

Flight Track Log - Related Links

Times and Time Zones

All times are in EDT time to prevent confusion due to time zone crossing. See the ASQ4633 flight status page for this flight to view local times or setup timezone preferences in your user account.

Time Position Orientation Groundspeed Altitude Reporting Facility
EDT Latitude Longitude Course Direction KTS MPH feet Rate Location/Type
03:59PM 44.4031 -73.1258 196° South 208 239 3,400  Level Boston Center
04:00PM 44.3425 -73.1514 197° South 237 273 5,800 2,700 Climbing Boston Center
04:01PM 44.1935 -73.2516 190° South  Level FlightAware Approximate
04:01PM 44.2736 -73.1794 196° South 249 287 8,900  Level Boston Center
04:02PM 44.1235 -73.2691 190° South  Level FlightAware Approximate
04:02PM 44.2006 -73.2075 195° South 263 303 10,900  Level Boston Center
04:03PM 44.0539 -73.2885 196° South  Level FlightAware Approximate
04:03PM 44.1128 -73.2469 198° South 302 348 12,200  Level Boston Center
04:04PM 43.9855 -73.3158 196° South  Level FlightAware Approximate
04:04PM 44.0186 -73.2831 195° South 335 386 13,900  Level Boston Center
04:05PM 43.9308 -73.3192 197° South 365 420 15,900 1,800 Climbing Boston Center
04:06PM 43.8408 -73.3697 202° Southwest 357 411 17,900 1,620 Climbing Boston Center
04:07PM 43.7608 -73.4519 217° Southwest 353 406 19,500 1,740 Climbing Boston Center
04:08PM 43.6536 -73.5650 217° Southwest 371 427 21,400 1,200 Climbing Boston Center
04:09PM 43.5572 -73.6292 206° Southwest 382 440 22,000 300 Climbing Boston Center
04:10PM 43.4403 -73.6525 188° South 405 466 22,000  Level Boston Center
04:11PM 43.3211 -73.6758 188° South 416 479 22,000 -60 Level Boston Center
04:12PM 43.2042 -73.7019 189° South 426 490 21,900 -660 Descending Boston Center
04:13PM 43.0997 -73.7281 190° South 426 490 20,700 -1,380 Descending Boston Center
04:14PM 42.9847 -73.7514 188° South 431 496 19,200 -1,500 Descending Boston Center
04:15PM 42.8739 -73.7772 190° South 420 483 17,800 -1,560 Descending Boston Center
04:16PM 42.7569 -73.8058 190° South 408 470 16,100 -900 Descending Boston Center
04:17PM 42.6606 -73.8461 197° South 388 447 16,000 -60 Descending Boston Center
04:18PM 42.5578 -73.8889 197° South 375 432 16,000  Level Boston Center
04:19PM 42.4656 -73.9317 199° South 393 452 16,000 -60 Level Boston Center
04:20PM 42.3525 -73.9825 198° South 393 452 15,900  Descending Boston Center
04:21PM 42.2517 -74.0247 197° South 388 447 16,000  Climbing Boston Center
04:22PM 42.1511 -74.0700 198° South 382 440 15,900  Descending Boston Center
04:23PM 42.0503 -74.1147 198° South 382 440 16,100 -120 Climbing Boston Center
04:24PM 41.9603 -74.1544 198° South 387 445 15,700 -960 Descending Boston Center
04:25PM 41.8511 -74.2017 198° South 382 440 14,200 -1,500 Descending Boston Center
04:26PM 41.7650 -74.2408 199° South 376 433 12,700 -1,620 Descending Boston Center
04:27PM 41.6664 -74.2797 196° South 356 410 11,000 -1,380 Descending Boston Center
04:28PM 41.5992 -74.3111 199° South 316 364 10,000 -1,200 Descending Boston Center
04:29PM 41.5172 -74.3447 197° South 282 325 8,600 -1,080 Descending Boston Center
04:31PM 41.3833 -74.4000 197° South 252 290 7,000 -600 Descending New York TRACON
04:32PM 41.3333 -74.4333 207° Southwest 249 287 7,000  Level New York TRACON
04:33PM 41.2667 -74.4667 201° Southwest 253 291 7,000 -120 Level New York TRACON
04:34PM 41.2000 -74.4333 159° South 263 303 6,800 -780 Descending New York TRACON
04:35PM 41.1333 -74.3667 143° Southeast 260 299 5,500 -900 Descending New York TRACON
04:36PM 41.0833 -74.3167 143° Southeast 246 283 5,000 -300 Descending New York TRACON
04:37PM 41.0333 -74.2667 143° Southeast 219 252 5,000  Level New York TRACON
04:38PM 40.9833 -74.2167 143° Southeast 220 253 5,000  Level New York TRACON
04:39PM 40.9667 -74.1500 108° East 185 213 5,000 -300 Level New York TRACON
04:40PM 40.9500 -74.1000 114° Southeast 175 201 4,400 -900 Descending New York TRACON
04:41PM 40.9000 -74.0667 153° Southeast 162 186 3,300 -720 Descending New York TRACON
04:42PM 40.8667 -74.0833 201° Southwest 149 171 3,000 -300 Descending New York TRACON
04:43PM 40.8167 -74.0833 180° South 156 180 2,800 -600 Descending New York TRACON
04:44PM 40.7833 -74.1167 217° Southwest 150 173 1,900 -900 Descending New York TRACON